ランキン彗星

501P/Rankin (2004)

English version
Home page
Updated on June 14, 2025

---------------------------------------------------------------------

・ プロフィール

・ 軌道要素

                    Epoch = 2004 Mar. 16.0 TT
     T = 2004 Mar. 29.50115 TT        Peri. =  52.54933
     e = 0.6949302                    Node  = 140.80218 2000.0
     q = 0.6814459 AU                 Incl. =  10.14371
       a =  2.2337381 AU   n = 0.29522675   P =   3.34 years

・ 光度変化

        H = 19.5  G = 0.15

---------------------------------------------------------------------

軌道要素は、CBET 5520に掲載されたものです。
光度グラフはComet for Windowsで作成したものです。

---------------------------------------------------------------------

Copyright(C) Seiichi Yoshida (comet@aerith.net). All rights reserved.